Regional Weather Roundup
Issued by NWS

Current Version | Previous Version | Text Only | Print | Product List | Glossary On
Versions: 1 2 3 4 5 6 7 8 9 10 11 12 13 14 15 16 17 18 19 20 21 22 23 24 25 26 27
000
ASUS42 KTBW 252218
RWRFL
FLORIDA REGIONAL WEATHER ROUNDUP
NATIONAL WEATHER SERVICE TAMPA BAY RUSKIN FL
600 PM EDT THU MAY 25 2017

NOTE: "FAIR" INDICATES FEW OR NO CLOUDS BELOW 12,000 FEET WITH NO
SIGNIFICANT WEATHER AND/OR OBSTRUCTIONS TO VISIBILITY.

FLZ001>010-012>015-112-114-115-252300-
PANHANDLE FLORIDA

CITY           SKY/WX    TMP DP  RH WIND       PRES   REMARKS
PENSACOLA      SUNNY     82  48  30 W7        29.85S
PENSACOLA NAS  SUNNY     78  56  46 SW16      29.85S
MILTON NAS     MOSUNNY   79  49  34 VRB7      29.85
CRESTVIEW      SUNNY     81  47  30 NW10      29.86F
DUKE FIELD     MOSUNNY   81  46  29 NW12G17   29.85R
VALPARAISO     MOSUNNY   79  55  42 SW14G21   29.85S
MARY ESTHER    SUNNY     77  53  43 SW13      29.84S
PANAMA CITY    FAIR      77  56  48 W13       29.83S
TYNDALL AFB    SUNNY     76  56  48 W14       29.86S
APALACHICOLA   SUNNY     78  53  41 W13       29.86F

STATION/POSITION SKY/WX   TEMP    WIND        PRES    WAVE   SWELL
                          AIR SEA DIR/SP/G            HT/PER HT/PER
                          (F)     (DEG/KT/KT) (MB)    (FT/S) (FT/S)
30.1N   87.6W              73 77  270/ 12/ 16 1011.4F   2/ 7   2/ 7
29.2N   88.2W              75 78  290/  8/ 10 1012.5
28.8N   86.0W              74 77  300/ 10/ 14 1012.1F   5/ 7   5/ 7
PANAMA CITY BEAC           74 80  250/ 13/ 17 1011.4R
TOWER C                    72     270/ 15/ 16 1012.4R
28.5N   84.5W              74 77  290/ 10/ 12 1012.2R   5/ 7   5/ 7

$$
FLZ011-016>038-118-127-128-134-139-239-252300-
NORTH FLORIDA

CITY           SKY/WX    TMP DP  RH WIND       PRES   REMARKS
MARIANNA       SUNNY     81  48  31 NW10      29.83F
TALLAHASSEE    MOSUNNY   81  48  31 NW12      29.83S
PERRY          SUNNY     79  53  41 SW10      29.85S
CROSS CITY     SUNNY     79  55  44 W12       29.86S
LAKE CITY      FAIR      81  46  30 W13       29.84S
GAINESVILLE    SUNNY     80  50  34 W16       29.85R
WILLISTON      SUNNY     81  55  41 SW12G21   29.87R
PALATKA        FAIR      82  46  28 W12       29.84S
MAYPORT NAS    MOSUNNY   82  46  28 SW15      29.81R
JACKSONVILLE   SUNNY     82  47  29 W12       29.81R
FERNANDINA BEA FAIR      84  46  26 W14       29.80R
ST AUGUSTINE   SUNNY     83  50  31 SW9       29.83S
PALM COAST     FAIR      83  54  37 SW9G18    29.83S

STATION/POSITION SKY/WX   TEMP    WIND        PRES    WAVE   SWELL
                          AIR SEA DIR/SP/G            HT/PER HT/PER
                          (F)     (DEG/KT/KT) (MB)    (FT/S) (FT/S)
SHELL POINT      NOT AVBL
KEATON BEACH               75     240/ 14/ 16 1010.6F
CEDAR KEY                  75     270/  9/ 13 1012.2F
FERNANDINA                 81 78  280/ 12/ 15 1010.0R
30.7N   81.3W                 78                N/A     2/ 3
MAYPORT                    80 79  260/ 12/ 17 1009.8R
31.4N   80.9W              76 77  270/ 16/ 19 1008.6R   3/ 5
ST AUGUSTINE               82 77  260/ 10/ 13 1010.9R

$$
FLZ040-043>046-052-053-057-058-063-144-252300-
INTERIOR CENTRAL FLORIDA

CITY           SKY/WX    TMP DP  RH WIND       PRES   REMARKS
OCALA          SUNNY     80  56  43 W13       29.88R
THE VILLAGES     N/A     81  55  41 MISG      29.78R
LEESBURG       SUNNY     81  56  42 NW10      29.88R
SANFORD        SUNNY     85  51  31 NW16      29.85R
ORLANDO EXEC   SUNNY     85  55  35 W20       29.85R
ORLANDO INTL   MOSUNNY   84  55  36 W12G21    29.85S
KISSIMMEE      SUNNY     86  56  35 W17       29.86S
WINTER HAVEN   MOSUNNY   86  50  28 W14       29.88R
LAKELAND       MOSUNNY   84  55  37 W15       29.88R
BARTOW         FAIR      84  54  34 W10       29.87S
OKEECHOBEE     CLOUDY    82  66  57 W10       29.90R

$$
FLZ041-047-054-059-064-141-147-252300-
EAST CENTRAL FLORIDA

CITY           SKY/WX    TMP DP  RH WIND       PRES   REMARKS
ORMOND BEACH   MOSUNNY   84  55  37 W15G23    29.83S
DAYTONA BEACH  MOSUNNY   85  54  34 W15       29.84R
DELAND         SUNNY     84  54  34 W14       29.85R
NEW SMYRNA BEA SUNNY     86  54  32 W16G28    29.85R
JFK SPACE CTR  SUNNY     88  53  29 W14       29.83S
TITUSVILLE     MOSUNNY   90  52  27 W14       29.84S
CAPE CANAVERAL MOSUNNY   86  64  48 SE12      29.83S
PATRICK AFB    PTSUNNY   88  61  40 W15       29.84S
MELBOURNE      MOSUNNY   86  61  42 SW14      29.85S
VERO BEACH     CLOUDY    82  68  62 W10       29.89R
FT PIERCE      CLOUDY    83  70  64 W7        29.89R

STATION/POSITION SKY/WX   TEMP    WIND        PRES    WAVE   SWELL
                          AIR SEA DIR/SP/G            HT/PER HT/PER
                          (F)     (DEG/KT/KT) (MB)    (FT/S) (FT/S)
28.5N   80.2W              78 78  170/ 12/ 14 1011.9
28.9N   78.5W              78 78  260/  6/ 10 1011.5R   6/ 7   7/ 7
TRIDENT PIER               78 79  110/  8/ 11 1012.3R
28.4N   80.5W                 75                N/A     1/ 8
27.5N   80.2W                 71                N/A     2/11

$$
FLZ050-056-061-142-242-148-248-149-249-151-251-155-255-
160-260-252300-
WEST CENTRAL FLORIDA

CITY           SKY/WX    TMP DP  RH WIND       PRES   REMARKS
CRYSTAL RIVER  FAIR      77  59  53 W8        29.89S
INVERNESS      FAIR      79  59  50 W3        29.89S
BROOKSVILLE    SUNNY     79  58  48 W13       29.90S
CLEARWATER AIR FAIR      77  59  53 NW12G17   29.90R
ST PETE CLEARW SUNNY     80  59  48 NW12      29.89S
TAMPA INTL     MOSUNNY   81  57  43 W12G20    29.89R
TAMPA EXEC     SUNNY     84  55  37 NW8       29.89S
PLANT CITY     SUNNY     84  59  42 NW12G18   29.90R
MACDILL AFB    SUNNY     80  60  50 NW8G16    29.89R
PETER O KNIGHT SUNNY     82  61  47 W7        29.89S
ST PETERSBURG  MOSUNNY   81  59  47 VRB3      29.87R
SARASOTA       MOSUNNY   81  60  48 W8        29.88R
VENICE         PTSUNNY   79  63  57 NW7       29.91R

STATION/POSITION SKY/WX   TEMP    WIND        PRES    WAVE   SWELL
                          AIR SEA DIR/SP/G            HT/PER HT/PER
                          (F)     (DEG/KT/KT) (MB)    (FT/S) (FT/S)
27.3N   84.2W                 77                N/A     5/ 7
CLEARWATER BEACH           76 82  320/  8/ 12 1012.5R
MIDDLE TAMPA BAY           77     290/ 11/ 12 1012.6R
VENICE                     78 82  320/  9/ 10 1012.2R

$$
FLZ066-069-070-075>078-162-262-165-265-252300-
SOUTHWEST FLORIDA AND KEYS

CITY           SKY/WX    TMP DP  RH WIND       PRES   REMARKS
PUNTA GORDA    CLOUDY    82  62  50 NW7       29.91S
FT MYERS       CLOUDY    82  65  56 W10       29.89R
SOUTHWEST INTL CLOUDY    81  65  58 NW7       29.90R
NAPLES         CLOUDY    81  69  67 NW9       29.90R
MARCO ISLAND   PTSUNNY   82  72  69 W7        29.90R
IMMOKALEE      CLOUDY    84  72  65 W8G14     29.90R
MARATHON       CLOUDY    88  77  69 W9        29.89F HX 100
KEY WEST NAS   CLOUDY    86  77  74 W12       29.90S HX  97
KEY WEST INTL  CLOUDY    85  76  74 W8        29.90F

STATION/POSITION SKY/WX   TEMP    WIND        PRES    WAVE   SWELL
                          AIR SEA DIR/SP/G            HT/PER HT/PER
                          (F)     (DEG/KT/KT) (MB)    (FT/S) (FT/S)
NAPLES                        84  320/  8/ 11 1012.4R
DRY TORTUGAS               81     310/ 10/ 11 1012.4F
SAND KEY                   82     270/  7/  8 1013.1F
LONG KEY                   84 84  260/ 10/ 11 1012.3F
MOLASSES REEF              82 81  260/ 10/ 11 1012.8S

$$
FLZ067-068-071>074-168-172>174-252300-
SOUTHEAST FLORIDA

CITY           SKY/WX    TMP DP  RH WIND       PRES   REMARKS
W PALM BEACH   CLOUDY    85  73  67 SW14G24   29.88S
BOCA RATON     MOSUNNY   82  73  74 W15G25    29.89R
FT LAUDER-EXEC CLOUDY    85  72  65 W13       29.89R
FT LAUDERDALE  CLOUDY    82  76  81 MISG      29.88S
POMPANO BEACH  CLOUDY    83  73  72 W15       29.89R
PEMBROKE PINES PTSUNNY   83  74  74 SW12      29.90S
OPA LOCKA      CLOUDY    83  77  82 W9        29.89S
MIAMI          CLOUDY    84  74  71 W8        29.89S
WEST KENDALL   CLOUDY    85  74  69 W9        29.89S
HOMESTEAD      CLOUDY    85  78  78 SW12      29.88S HX  97

STATION/POSITION SKY/WX   TEMP    WIND        PRES    WAVE   SWELL
                          AIR SEA DIR/SP/G            HT/PER HT/PER
                          (F)     (DEG/KT/KT) (MB)    (FT/S) (FT/S)
PORT EVERGLADES            82     250/  6/ 11 1012.0F
VIRGINIA KEY               85 84  250/ 11/ 15 1011.4F
LAKE WORTH                 83 82              1012.5F
FOWEY ROCKS                85 80  240/ 17/ 18 1012.6F
SETTLEMENT POINT           80     210/ 10/ 11 1012.3R

$$





USA.gov is the U.S. government's official web portal to all federal, state and local government web resources and services.